Regional Weather Roundup
Issued by NWS

Home | Current Version | Previous Version | Text Only | Print | Product List | Glossary On
Versions: 1 2 3 4 5 6 7 8 9 10 11 12 13 14 15 16 17 18 19 20 21 22 23 24 25 26 27 28
000
ASUS45 KBOI 191210
RWRID
WEATHER ROUNDUP FOR IDAHO
NATIONAL WEATHER SERVICE BOISE ID
600 AM MDT SAT APR 19 2014

NOTE: "FAIR" INDICATES FEW OR NO CLOUDS BELOW 12000 FEET
WITH NO SIGNIFICANT WEATHER AND/OR OBSTRUCTIONS TO VISIBILITY

IDZ012-014-191300-
SOUTHWEST IDAHO


CITY           SKY/WX    TMP DP  RH WIND       PRES   REMARKS
BOISE          PTCLDY    44  23  43 SE12      29.95S
CALDWELL       PTCLDY    37  25  60 E5        29.98S WCI  34
MOUNTAIN HOME  PTCLDY    38  26  61 E8        29.97S WCI  32
$$

IDZ016-017-191300-
SOUTHCENTRAL IDAHO


CITY           SKY/WX    TMP DP  RH WIND       PRES   REMARKS
BURLEY         PTCLDY    32  28  85 E3        29.99F
JEROME         CLEAR     36  25  64 E3        29.99S
TWIN FALLS     CLEAR     36  24  62 S6        29.98F WCI  31
$$

IDZ019>023-191300-
SOUTHEAST IDAHO


CITY           SKY/WX    TMP DP  RH WIND       PRES   REMARKS
IDAHO FALLS    PTCLDY    37  25  61 SE5       30.01S WCI  33
POCATELLO      CLEAR     31  22  69 CALM      30.02S
REXBURG        CLEAR     35  21  56 SW3       30.01R
$$

IDZ006-010-011-018-031-032-191300-
CENTRAL IDAHO MOUNTAINS


CITY           SKY/WX    TMP DP  RH WIND       PRES   REMARKS
MCCALL         CLEAR     26  18  71 CALM      29.99R
HAILEY         MOCLDY    36  18  48 NW9       30.03S WCI  29
STANLEY          N/A     18  14  84 S3        30.05F
SALMON         PTCLDY    25  18  74 CALM      30.04F
CHALLIS        PTCLDY    32  32 100 NW3       30.03S
$$

IDZ002-004-006-007-026-191300-
NORTHERN IDAHO


CITY           SKY/WX    TMP DP  RH WIND       PRES   REMARKS
LEWISTON       CLEAR     39  28  64 E9        29.96S WCI  33
LOWELL           N/A     32  30  92 NW5       30.07S WCI  27
COEUR D`ALENE  CLEAR     30  27  86 E5        29.97S WCI  25
MULLAN PASS    CLEAR     24  19  81 S9        29.91F WCI  14
$$



USA.gov is the U.S. government's official web portal to all federal, state and local government web resources and services.